weather.gov     
National Weather Service

Regional Weather Roundup
NWS Homepage
This page is being discontinued on March 12, 2014.
The same data is available at this site. Please update your bookmarks.
Thank you, and we apologize for the inconvenience.
Please send an email to SR-SRH.Webmaster@noaa.gov with any concerns.


Current Version
Previous Version:    01  02  03  04  05  06  07  08  09  10  11  12  13  14  15  16  17  18  19  20  21  22  23  24  25  26  
[Printable]
588
ASUS42 KRAH 252010
RWRRAH
NORTH CAROLINA WEATHER ROUNDUP
NATIONAL WEATHER SERVICE RALEIGH NC
400 PM EDT SAT OCT 25 2014

NOTE: "FAIR" INDICATES FEW OR NO CLOUDS BELOW 12,000 FEET WITH NO
SIGNIFICANT WEATHER AND/OR OBSTRUCTIONS TO VISIBILITY.

NCZ001-053-055-056-065-067-252100-
WESTERN NORTH CAROLINA

CITY           SKY/WX    TMP DP  RH WIND       PRES   REMARKS
ASHEVILLE      SUNNY     71  40  32 N12       30.01F
JEFFERSON      SUNNY     66  27  22 N7        30.00S
MORGANTON      SUNNY     76  33  21 SW5       29.99F
HICKORY        SUNNY     73  37  27 S7        29.95F
RUTHERFORDTON  SUNNY     74  37  26 SW6       29.96F
MOUNT AIRY     SUNNY     74  34  23 SW3       29.95S
BOONE          SUNNY     62  36  38 NW16G24   30.02F
$$

NCZ021-022-025-041-071-084-088-252100-
CENTRAL NORTH CAROLINA

CITY           SKY/WX    TMP DP  RH WIND       PRES   REMARKS
CHARLOTTE      SUNNY     74  35  24 VRB3      29.96F
GREENSBORO     MOSUNNY   72  36  26 W7        29.92F
WINSTON-SALEM  SUNNY     73  31  21 VRB7      29.94F
RALEIGH-DURHAM SUNNY     70  43  37 SW6       29.92F
FORT BRAGG     SUNNY     73  42  33 SW3       29.92F
FAYETTEVILLE   SUNNY     74  39  28 NW3       29.92F
BURLINGTON     SUNNY     72  34  24 SW9       29.92F
LAURINBURG     SUNNY     74  38  27 NW7       29.94F
$$

NCZ011-015-027-028-043-044-047-080-103-252100-
NORTHEASTERN NORTH CAROLINA

CITY           SKY/WX    TMP DP  RH WIND       PRES   REMARKS
ROCKY MT-WILSO SUNNY     71  43  36 W6        29.91F
GREENVILLE     SUNNY     72  43  35 W3        29.92F
WASHINGTON     SUNNY     71  44  37 CALM      29.90S
ELIZABETH CITY SUNNY     73  49  42 SW8       29.87F
MANTEO         SUNNY     66  46  48 N5        29.88F
CAPE HATTERAS  SUNNY     68  49  50 VRB6      29.88F
$$

NCZ078-087-090-091-093-098-101-252100-
SOUTHEASTERN NORTH CAROLINA

CITY           SKY/WX    TMP DP  RH WIND       PRES   REMARKS
LUMBERTON      SUNNY     76  36  23 W9        29.92F
GOLDSBORO      SUNNY     73  47  40 NW3       29.89F
KINSTON        SUNNY     73  45  35 CALM      29.91F
KENANSVILLE    SUNNY     72  42  34 W3        29.92S
NEW BERN       SUNNY     75  45  34 W5        29.90F
CHERRY POINT   SUNNY     72  44  36 SW5       29.90
BEAUFORT       SUNNY     69  51  52 SW9       29.90F
JACKSONVILLE   SUNNY     73  44  35 NW6       29.89F
WILMINGTON     SUNNY     74  42  31 CALM      29.90F
$$





U.S. Dept. of Commerce
NOAA National Weather Service
1325 East West Highway
Silver Spring, MD 20910
E-mail: w-nws.webmaster@noaa.gov
Page last modified: May 16, 2007
NATIONAL WEATHER SERVICE: for Safety, for Work, for Fun - FOR LIFE